Meteo Giornale » Osservazioni meteo Italia » Rimini

ore: 14:45 - Osservazioni Meteo Rimini
Lat. 44° 2' N Lon. 12° 37' E Alt. 12 metri s.l.m.

molto_nuvoloso Europe/Rome

12 °C

Molto Nuvoloso

Temp. 24 Ore

12 °C

19 °C

Nord

1.8 Km/h

Dew point 11 °C

Umidità 93 %

Visibilità  10 Km

Il sole sorge alle ore 07:33

Il sole tramonta alle ore 16:33

Data e Ora Cielo e Fenomeni T °C DP °C Um. % Pres. hPa Vis. km Vento km/h
Oggi h: 14:45 molto_nuvoloso Molto Nuvoloso 12 11 93 1011 10 N 1.8
Oggi h: 14:15 molto_nuvoloso Molto Nuvoloso 12 11 93 1011 10 N 3.7
Oggi h: 13:45 molto_nuvoloso Molto Nuvoloso 12 11 93 1011 10 N 3.7
Oggi h: 13:15 molto_nuvoloso Molto Nuvoloso 12 11 93 1011 10 N 1.8
Oggi h: 12:45 coperto_pioggia Pioggia Debole 12 11 93 1011 7 N 0
Oggi h: 12:15 coperto_pioggia Pioggia Debole 12 11 93 1011 6 N 0
Oggi h: 11:45 coperto_pioggia Pioggia Debole 12 11 93 1011 6 N 1.8
Oggi h: 11:15 coperto_pioggia Pioggia Debole Foschia 12 11 93 1010 5 N 3.7
Oggi h: 10:45 coperto_pioggia Pioggia Debole Foschia 12 11 93 1010 5 N 3.7
Oggi h: 10:15 coperto_pioggia Pioggia Debole Foschia 12 11 93 1010 5 N 0
Oggi h: 09:45 coperto_pioggia Pioggia Debole 12 11 93 1009 6 N 0
Oggi h: 09:15 coperto_pioggia Pioggia Debole 12 11 93 1009 6 N 0
Oggi h: 08:45 coperto_pioggia Pioggia Debole 12 11 93 1008 6 N 5.5
Oggi h: 08:15 coperto_pioggia Pioggia Debole 13 12 93 1007 6 N 0
Oggi h: 07:45 coperto_pioggia Pioggia Debole 13 12 93 1007 5 N 7.4
Oggi h: 07:15 coperto_pioggia Pioggia 13 12 93 1007 5 N/NO 11.1
Oggi h: 06:45 coperto_pioggia Pioggia 13 12 93 1006 5 N/NO 20.3
Oggi h: 06:15 coperto_pioggia Pioggia 15 13 87 1004 7 NO 22.2
Oggi h: 05:45 molto_nuvoloso Molto Nuvoloso 17 11 67 1003 10 S/SE 22.2
Oggi h: 04:15 molto_nuvoloso Molto Nuvoloso 17 11 67 1002 10 S/SE 25.9
Oggi h: 03:45 molto_nuvoloso Molto Nuvoloso 18 10 59 1002 10 S/SE 25.9
Oggi h: 03:15 molto_nuvoloso Molto Nuvoloso 18 10 59 1002 10 S/SE 27.8
Oggi h: 02:45 molto_nuvoloso Molto Nuvoloso 18 10 59 1002 10 S/SE 25.9
Oggi h: 02:15 molto_nuvoloso Molto Nuvoloso 19 10 55 1001 10 S/SE 31.5
Oggi h: 01:45 molto_nuvoloso Molto Nuvoloso 18 10 59 1001 10 S/SE 25.9
Oggi h: 01:15 nuvoloso Nuvoloso 18 9 55 1001 10 S/SE 22.2
Oggi h: 00:45 nuvoloso Nuvoloso 18 10 59 1001 10 S/SE 24
Oggi h: 00:15 nuvoloso Nuvoloso 18 10 59 1001 10 S/SE 25.9
Ieri h: 23:45 nuvoloso Nuvoloso 18 10 59 1001 10 S/SE 25.9
Ieri h: 23:15 nuvoloso Nuvoloso 18 10 59 1001 10 S/SE 24
Ieri h: 22:45 nuvoloso Nuvoloso 18 10 59 1001 10 S 24
Ieri h: 22:15 nuvoloso Nuvoloso 18 10 59 1001 10 S 25.9
Ieri h: 21:45 nuvoloso Nuvoloso 17 10 63 1000 10 S 24
Ieri h: 21:15 nuvoloso Nuvoloso 17 9 59 1001 10 S 27.8
Ieri h: 20:45 nuvoloso Nuvoloso 17 10 63 1001 10 S 29.6
Ieri h: 20:15 nuvoloso Nuvoloso 17 10 63 1001 10 S 25.9
Ieri h: 19:45 molto_nuvoloso Molto Nuvoloso 17 10 63 1001 10 S 29.6
Ieri h: 19:15 molto_nuvoloso Molto Nuvoloso 17 10 63 1001 10 S 24
Ieri h: 18:15 molto_nuvoloso Molto Nuvoloso 17 10 63 1000 10 S 27.8
Ieri h: 17:45 molto_nuvoloso Molto Nuvoloso 17 10 63 1000 10 S 24
Ieri h: 16:45 molto_nuvoloso Molto Nuvoloso 17 10 63 999 10 S 33.3
Ieri h: 16:15 molto_nuvoloso Molto Nuvoloso 17 10 63 999 10 S 22.2
Ieri h: 15:45 molto_nuvoloso Molto Nuvoloso 17 11 67 999 10 S 24
Ieri h: 15:15 nuvoloso Nuvoloso 17 10 63 1000 10 S 20.3
Ieri h: 14:45 nuvoloso Nuvoloso 17 10 63 1000 10 S 22.2